Regional Weather Roundup
Issued by NWS

Home | Current Version | Previous Version | Text Only | Print | Product List | Glossary Off
Versions: 1 2 3 4 5 6 7 8 9 10 11 12 13 14 15 16 17 18 19 20 21 22 23 24 25 26 27 28 29 30 31 32 33 34 35 36 37 38 39 40 41 42 43 44 45 46 47 48 49 50

764
ASUS44 KMEG 180910
RWRTN
TENNESSEE HOURLY STATE WEATHER ROUNDUP
NATIONAL WEATHER SERVICE MEMPHIS TN
400 AM CDT FRI AUG 18 2017

TNZ002-004-019-021-049-052-054-088>092-181000-
WEST TENNESSEE

CITY           SKY/WX    TMP DP  RH WIND       PRES   REMARKS
MEMPHIS INTL   PTCLDY    73  72  96 SW3       29.97S
NWS MEMPHIS      N/A     73 N/A N/A MISG        N/A
JACKSON        MOCLDY    74  74 100 SW6       29.96R
DYERSBURG      CLEAR     72  72 100 W3        29.96S
SOMERVILLE     PTCLDY    73  72  94 SW5       29.97R
COVINGTON      MOCLDY    73  73 100 NW3       29.96R
UNION CITY     PTCLDY    70  70 100 SW3       29.94R
PARIS          PTCLDY    73  73 100 W5        29.94R
HUNTINGDON     CLOUDY    73  73 100 CALM      29.95R FOG
LEXINGTON      CLOUDY    73  73 100 SW3       29.96R
SELMER         CLEAR     73  72  94 W6        29.97R
SAVANNAH       PTCLDY    73  73 100 CALM      29.96S
$$

TNZ008-025-027-028-033-062-065-066-181000-
NORTH MIDDLE TENNESSEE

CITY           SKY/WX    TMP DP  RH WIND       PRES   REMARKS
NASHVILLE      CLOUDY    76  73  91 CALM      29.94R
PORTLAND       CLOUDY    75  73  94 SW6       29.92S
CLARKSVILLE    CLOUDY    75  73  93 W6        29.93R
SMYRNA         CLOUDY    75  73  93 W5        29.95R
COOKEVILLE     CLOUDY    73  73 100 S5        29.95R
GALLATIN       CLOUDY    75  73  94 CALM      29.95S
CROSSVILLE     CLOUDY    71  69  93 CALM      30.00S
$$

TNZ061-075-076-078-094-096-097-181000-
SOUTH MIDDLE TENNESSEE

CITY           SKY/WX    TMP DP  RH WIND       PRES   REMARKS
FAYETTEVILLE   CLOUDY    75  73  94 W5        29.97S
TULLAHOMA        N/A     73  72  94 SW6       29.98S
WINCHESTER     CLOUDY    75  73  94 SW3       29.97S
MCMINNVILLE    MOCLDY    75  75 100 CALM      29.96S
COLUMBIA       CLOUDY    75  75 100 CALM      29.94S
SHELBYVILLE    CLOUDY    75  73  94 W9        29.95S
$$

TNZ017-018-042-046-047-181000-
NORTHEAST TENNESSEE

CITY           SKY/WX    TMP DP  RH WIND       PRES   REMARKS
TRI CITIES     MOCLDY    70  69  97 CALM      29.98S FOG
ELIZABETHTON   CLOUDY    70  70 100 CALM      29.99S
$$

TNZ012-013-036-069-073-074-181000-
CENTRAL EAST TENNESSEE

CITY           SKY/WX    TMP DP  RH WIND       PRES   REMARKS
KNOXVILLE      MOCLDY    75  70  84 SW12      29.94S
OAK RIDGE      CLOUDY    76  71  85 VRB3      29.95S
DOWNTOWN KNOXV PTCLDY    77  73  88 W6        29.93R
GATLINBURG     PTCLDY    73  68  83 SW5       29.94S
MORRISTOWN     PTCLDY    75  72  88 SW8       29.95S
JACKSBORO      CLOUDY    73  73 100 CALM      29.97S
$$

TNZ083-085-099-181000-
SOUTHEAST TENNESSEE

CITY           SKY/WX    TMP DP  RH WIND       PRES   REMARKS
CHATTANOOGA    MOCLDY    78  71  79 S3        29.96S
DAYTON         CLOUDY    75  75 100 CALM      29.94S
$$

SKY/WX REPORTED AS FAIR MEANS FEW OR NO CLOUDS BELOW
12 THOUSAND FEET.





USA.gov is the U.S. government's official web portal to all federal, state and local government web resources and services.